To NAV CANADA Home Page Login to a new session Search on AWWS site Feedback and Comments Disclaimer Vers la page française équivalente Tips FAQ What's new on the site To the Forecasts and Observations / NOTAM section To "File a Flight Plan" website Publications and other links Update of the User's profile FIC Telephone Numbers My Weather Data Folder Route Weather Data Regional Weather Data Local Weather Data To the Forecasts and Observations / NOTAM section
Request Generated 08/22/2017 at 03:22:48 UTC . Weather information available at that time is displayed.

METAR/TAF

FARO/YT    

LWIS CZFA 220300Z AUTO 11008KT 17/08 A2979=
LWIS CZFA 220200Z AUTO 12007KT 18/09 A2979=
METAR CZFA 220100Z 11005KT 070V150 30SM FEW045 BKN064 BKN080 BKN100
17/08 A2980 RMK CU1SC4AC1AC1 CLIMAT 17.7/10.3/0.0 LAST STFD OBS NXT
221300Z SLP106 DENSITY ALT 3300FT=

*** REMARK        : Forecast period has ended; this was the last TAF issued
*** REMARQUE : La période de prévision est échue; ceci était le dernier TAF qui a été émis
TAF CZFA 211738Z 2118/2201 15008KT P6SM BKN050 OVC070 TEMPO 2118/2201
P6SM -SHRA
RMK NXT FCST WILL BE ISSUED AT 221445Z=
Your time UTC time
Weather data provided by Environment Canada and NAV CANADA